Wind_Speed
22 22 22 22 22 23 23 24 24 24 24 24 24 24 23 24 24 24 23 23 23 23 24 25 26 26 27 28 28 28 28 29 28 29 29 28 28 28 28 27 26 27 26 26 25 24 23 23 22 21 21 20 20 20 20 19 20 20 20 20 18 16 14 12 12 10 11 13 20 23 29 34 36 41 42 42 44 39 30 30 33 34 34 35 34 32 31 30
22 22 22 23 23 23 23 24 24 24 24 24 24 24 24 24 23 23 23 23 22 23 24 24 25 26 26 27 27 28 28 28 28 28 28 27 27 27 27 26 26 26 26 26 25 24 24 23 22 21 21 20 20 20 20 20 21 19 19 19 16 12 12 10 11 11 14 20 25 27 32 36 37 36 35 36 38 32 23 24 28 32 34 34 33 33 32 31
23 23 23 24 24 24 24 24 24 25 25 25 24 24 24 24 23 23 22 22 22 22 23 24 25 25 26 26 27 27 27 27 27 27 27 26 26 26 26 26 26 26 26 26 25 25 24 23 22 21 21 20 20 20 20 20 20 19 19 18 13 11 13 12 16 13 16 25 28 31 34 37 38 33 30 30 29 25 23 24 26 28 30 30 32 33 33 32
24 25 25 25 25 25 25 25 25 25 25 25 25 25 24 24 23 22 21 21 21 22 23 23 24 24 25 25 26 26 26 26 26 26 26 26 26 26 26 26 26 26 26 25 25 24 24 23 22 22 21 20 20 20 20 20 18 18 18 16 12 14 16 18 25 22 22 29 31 32 31 38 41 36 36 30 27 29 26 26 27 26 27 28 31 33 34 33
25 25 25 25 25 25 26 26 25 25 25 25 25 25 24 23 22 21 21 21 21 22 22 22 22 23 23 24 24 24 25 25 25 26 26 26 26 26 26 26 26 26 26 25 25 25 24 24 23 22 21 21 21 20 20 19 18 18 17 16 15 17 19 22 28 29 31 33 30 26 23 32 37 37 38 29 29 33 25 24 26 24 25 28 31 31 30 30
25 26 26 25 25 25 25 25 26 25 25 25 25 24 23 23 22 21 20 20 21 21 20 20 20 21 22 22 22 23 23 23 23 25 25 25 25 25 26 25 25 25 25 25 25 25 25 24 23 22 22 21 21 20 20 19 19 19 17 16 17 18 20 22 27 30 32 30 24 20 19 24 29 32 31 24 31 34 23 22 24 23 26 29 29 25 20 22
26 26 25 25 25 25 25 25 25 25 25 25 24 23 23 22 21 20 20 20 19 19 18 18 18 19 20 20 21 21 21 21 22 24 23 23 24 24 25 25 25 25 25 26 26 25 25 24 24 23 22 22 21 21 21 22 21 20 18 18 19 20 21 24 26 28 29 24 17 15 16 19 25 28 23 21 30 30 25 23 22 25 29 29 29 25 20 21
26 26 25 25 24 24 24 24 25 25 25 24 23 22 22 21 20 19 19 18 17 17 16 16 16 17 18 19 19 19 19 19 20 22 22 22 22 22 23 24 25 25 26 26 26 26 26 25 25 24 24 24 23 24 24 24 23 22 21 22 21 21 24 25 25 26 25 21 15 13 14 17 22 23 20 23 29 27 26 24 21 25 28 30 30 27 24 22
26 25 25 24 24 24 24 24 24 24 24 23 22 21 21 20 19 19 18 17 16 15 14 14 14 15 16 16 17 16 16 18 19 20 21 21 21 21 22 23 24 25 25 26 26 26 26 27 26 26 26 26 26 27 26 25 24 24 24 23 21 21 23 24 26 26 22 20 18 14 13 15 18 20 19 22 27 27 26 23 20 22 24 27 28 26 25 24
25 25 24 24 23 23 23 23 23 23 23 23 21 20 20 20 19 18 17 16 15 14 13 13 12 13 13 14 14 14 14 16 17 18 19 20 20 21 21 22 23 23 24 25 25 26 27 27 27 27 27 27 26 26 25 25 24 25 24 23 22 23 23 25 25 23 21 21 20 16 14 15 18 18 17 21 27 27 25 22 20 20 21 23 25 25 25 26
25 24 24 23 23 23 23 23 23 23 22 21 20 20 19 19 18 17 16 15 15 14 13 13 12 11 11 11 12 12 12 14 15 16 17 18 18 18 19 20 21 22 22 23 24 25 26 26 27 26 26 26 24 25 26 25 25 25 24 23 22 21 22 23 23 21 20 21 20 17 17 17 17 15 15 21 26 25 24 22 18 18 19 20 22 24 24 25
24 23 23 23 23 23 22 22 22 22 21 21 20 20 19 18 18 17 16 15 15 15 14 14 13 12 11 10 10 10 11 12 13 13 14 15 15 16 16 17 18 19 19 20 21 22 22 23 23 23 25 25 24 25 26 24 24 23 23 22 19 18 19 20 21 21 20 21 21 19 18 17 16 15 15 21 25 24 22 21 19 18 19 20 21 21 22 23
23 23 23 23 23 22 22 22 22 21 20 20 20 20 19 18 17 17 16 16 15 15 15 14 13 12 12 11 9 9 10 11 11 12 12 13 13 14 14 15 15 15 16 17 17 18 19 20 20 22 22 20 21 22 21 20 20 19 20 19 16 16 16 16 19 19 18 20 22 20 18 16 16 14 15 22 25 24 22 23 24 23 19 18 20 19 18 19
22 22 22 22 22 22 22 21 21 20 20 20 20 20 19 18 17 17 16 16 16 16 15 15 14 13 12 11 10 10 9 10 10 11 12 12 12 12 13 13 13 13 14 15 15 16 17 18 18 19 18 17 19 19 17 15 14 15 15 14 13 11 11 16 19 15 14 21 23 19 17 15 14 10 12 21 25 24 23 24 26 23 17 15 17 17 16 16
22 22 22 22 22 21 21 21 20 20 20 20 20 20 19 18 17 17 16 16 16 16 16 15 14 13 13 12 12 11 10 9 10 10 11 12 12 12 12 12 12 13 13 14 15 15 16 16 17 17 17 17 18 16 15 14 13 13 11 9 7 7 11 15 14 9 8 18 22 18 14 9 7 7 13 21 26 25 23 21 20 15 13 14 16 17 16 16
21 21 21 21 21 21 20 20 20 20 20 20 20 20 19 18 18 17 17 16 16 16 16 16 15 14 14 13 12 11 11 10 10 10 10 11 11 12 12 12 12 12 13 13 14 14 14 15 15 16 16 15 15 14 14 12 10 10 8 6 6 10 14 10 8 6 6 14 19 16 10 8 7 10 18 21 24 28 26 23 21 17 17 17 15 16 15 15
21 20 20 20 20 20 20 20 20 20 20 20 20 21 20 20 19 18 17 17 17 16 16 16 15 15 15 14 13 12 11 10 10 10 10 10 10 11 11 12 12 12 12 12 12 13 13 13 14 14 14 13 12 11 11 10 11 10 9 12 9 6 10 8 10 11 12 15 19 13 9 16 15 14 16 19 23 30 30 28 29 29 29 24 19 18 16 14
20 20 20 20 20 20 19 20 20 20 20 21 21 22 22 22 21 20 19 18 17 17 17 16 16 16 16 14 13 12 11 10 10 11 10 10 10 10 10 11 11 12 12 12 12 12 12 12 12 11 11 11 9 7 9 13 14 13 10 13 13 6 1 7 12 15 15 15 16 7 16 22 19 16 14 17 23 29 32 32 34 35 34 30 25 21 19 17
18 19 19 19 20 19 19 20 20 21 21 21 22 22 23 23 22 21 20 19 18 18 17 16 16 17 16 15 14 12 11 11 11 11 11 10 11 10 11 11 11 11 11 11 11 11 11 11 11 11 11 11 12 13 14 16 15 15 12 12 15 9 3 7 12 14 14 12 10 4 15 22 18 16 14 16 21 27 31 33 34 34 33 30 24 21 20 19
18 18 19 19 19 19 20 20 20 21 22 22 22 23 24 24 24 23 21 21 20 19 17 16 17 17 16 16 13 11 13 12 11 11 11 10 11 11 11 11 11 11 11 11 11 11 11 10 9 10 11 12 14 14 14 15 13 13 14 13 13 11 10 9 11 14 14 14 13 7 12 20 12 10 12 17 23 24 27 30 30 29 29 25 20 18 19 19
18 18 19 19 19 19 20 20 21 21 22 23 23 24 24 25 25 24 23 22 21 20 18 17 18 18 17 16 13 13 14 13 12 12 11 11 11 11 11 11 11 12 12 12 11 11 12 11 10 10 11 12 13 12 11 13 12 13 19 17 14 14 13 12 15 20 22 20 19 12 12 20 13 8 12 19 24 24 25 28 26 24 22 20 18 17 19 20
19 19 19 20 20 20 20 20 21 21 22 23 23 24 24 25 25 24 24 23 21 21 19 18 18 18 17 16 14 14 15 15 14 13 12 12 13 12 12 11 12 12 12 12 11 11 13 13 13 13 12 12 12 11 11 15 14 15 24 23 17 19 18 14 15 21 25 24 23 18 14 17 16 17 17 16 21 25 28 29 27 24 22 22 21 19 19 21
19 20 20 20 20 20 21 21 20 21 22 22 22 23 24 25 25 25 24 23 22 21 19 18 18 18 18 17 16 15 16 16 15 14 14 14 14 13 12 12 13 13 12 13 12 11 12 13 14 14 13 13 13 14 13 14 16 16 25 28 21 21 21 12 11 19 23 23 25 23 19 16 17 24 22 18 22 27 29 31 30 26 25 25 23 20 20 21
19 20 20 20 21 21 21 22 22 22 22 23 23 23 23 23 23 24 24 23 21 20 20 19 19 18 18 18 18 16 17 17 16 16 15 15 16 13 12 14 14 14 13 13 13 12 12 14 15 15 13 13 15 16 15 14 15 16 23 29 23 21 22 14 9 15 19 21 23 25 23 17 16 24 23 20 25 28 31 32 27 24 26 28 27 24 22 22
19 20 20 20 21 21 22 22 23 24 23 23 23 23 24 23 23 23 23 22 21 20 21 20 18 18 20 21 19 18 19 18 17 17 16 16 17 15 15 16 14 14 14 13 12 12 12 12 15 14 13 13 12 13 15 15 16 16 20 25 24 22 24 20 14 16 21 23 22 24 24 17 16 23 22 20 25 29 32 30 26 26 27 25 25 24 23 23
19 20 20 20 20 21 22 21 21 23 23 21 21 22 22 22 23 23 23 22 21 21 20 18 17 17 19 19 18 20 19 17 19 21 19 16 16 17 17 16 14 12 13 12 9 9 10 14 18 16 16 15 11 10 14 16 17 18 19 22 23 25 26 24 22 23 26 26 24 23 23 19 18 20 19 20 26 27 27 24 23 25 22 19 19 21 22 22
19 20 20 21 20 21 21 22 22 22 21 21 21 22 21 22 22 23 24 23 21 21 20 18 16 14 16 18 15 14 14 15 19 22 19 14 15 18 15 14 13 12 11 11 8 9 12 17 20 18 16 16 13 12 15 17 17 18 19 20 22 25 29 30 28 27 27 26 24 22 20 19 18 16 15 18 22 22 21 21 21 20 18 18 21 21 22 22
20 20 21 21 22 21 21 22 23 23 22 22 22 22 21 22 22 22 24 23 20 20 18 17 16 14 17 18 12 10 13 16 15 15 14 11 13 15 13 13 15 15 16 14 11 13 15 19 22 20 17 16 14 13 15 16 16 17 18 19 22 25 28 30 29 28 28 27 26 24 22 22 21 19 17 18 19 18 20 24 23 22 21 23 26 26 23 22
22 21 21 22 22 23 23 23 23 23 23 23 23 22 22 23 22 23 24 22 20 19 18 18 16 16 20 18 12 12 15 14 13 14 14 12 12 12 12 14 14 15 19 16 15 16 16 21 25 23 18 14 14 15 15 15 14 16 17 18 22 25 26 28 28 27 29 29 28 25 24 25 24 22 19 18 19 21 24 27 27 25 24 26 28 27 22 22
23 22 22 22 22 23 24 24 25 25 24 24 24 23 23 22 22 23 24 22 19 20 21 19 16 16 19 18 14 14 16 16 15 18 18 13 13 14 15 16 14 14 17 18 16 16 16 20 21 20 17 14 16 19 19 17 15 17 19 19 22 23 22 24 25 25 27 27 26 21 18 21 23 22 20 18 19 23 25 27 27 25 24 25 25 23 21 22
23 23 22 22 22 22 23 24 25 26 26 26 26 25 24 22 22 21 19 17 17 18 19 17 14 16 16 15 13 13 15 16 15 16 17 14 14 16 17 17 16 14 16 17 14 12 15 19 17 15 14 14 17 20 21 20 17 18 20 21 22 21 20 20 22 25 26 24 22 19 17 20 23 22 20 18 19 23 25 24 24 23 23 23 22 20 20 21
22 23 23 23 22 22 22 23 24 25 25 26 26 24 23 22 21 16 13 15 15 15 16 14 14 16 16 16 15 15 16 17 16 17 18 15 13 16 17 16 16 15 15 16 13 13 16 19 19 17 15 15 18 20 22 19 15 15 18 20 19 19 20 20 21 25 26 22 19 19 20 21 22 21 19 19 21 23 24 24 24 24 23 21 19 19 20 21
23 23 23 24 23 23 23 22 23 25 25 25 24 22 21 20 16 12 13 16 14 13 14 13 12 12 14 14 13 15 17 17 19 21 19 14 11 14 16 17 17 15 15 16 16 17 18 18 19 17 14 14 15 19 21 17 13 13 15 17 17 18 20 21 23 24 24 22 19 19 21 21 21 21 19 19 22 24 26 26 26 25 23 21 21 21 22 21
26 25 24 24 24 24 25 24 24 25 25 25 23 22 22 19 14 11 13 15 13 13 12 11 11 10 11 12 11 12 13 13 15 17 16 13 13 13 14 17 18 14 14 14 14 17 18 16 14 13 13 11 9 14 19 18 14 10 10 11 13 16 19 21 23 22 21 22 19 19 20 19 20 22 21 20 21 23 24 24 23 23 23 24 24 22 20 18
27 27 26 25 26 26 27 26 25 25 25 25 24 23 22 18 13 13 14 14 13 13 12 13 14 13 14 15 13 12 11 13 16 15 14 15 16 14 11 12 16 15 14 13 13 15 16 14 11 10 13 12 9 10 15 17 15 10 8 9 10 15 18 19 20 19 18 18 17 18 18 16 16 18 19 19 19 19 19 19 19 20 22 24 23 22 19 18
28 28 27 26 27 28 28 27 26 26 25 25 25 24 21 18 15 15 16 16 14 10 12 16 15 15 18 17 15 15 14 16 20 19 19 17 16 16 13 10 12 15 16 14 13 14 15 14 11 7 11 13 11 9 12 16 17 15 12 9 9 13 15 15 17 16 18 19 17 16 16 15 16 16 16 16 17 19 19 19 21 22 23 23 24 23 23 23
28 28 27 27 28 29 29 28 28 27 27 26 26 23 21 19 17 17 17 19 17 13 15 19 16 15 19 19 17 16 15 17 21 21 21 19 17 16 13 10 12 15 17 19 18 18 18 17 16 14 13 13 13 15 15 14 17 18 17 14 10 10 11 13 14 15 18 18 16 15 14 15 17 17 18 18 19 21 22 24 24 24 23 23 22 22 22 23
26 25 25 27 29 30 29 29 29 29 28 28 26 23 21 19 17 17 19 21 21 19 19 20 18 17 19 20 19 17 17 21 23 21 19 18 18 17 12 12 18 19 20 23 23 21 21 20 21 23 21 14 13 16 14 13 15 16 16 17 13 8 9 12 13 15 17 16 15 13 12 14 16 16 18 18 18 20 22 24 24 23 22 19 18 18 18 19
22 21 21 24 27 27 28 29 30 31 31 29 26 23 21 19 18 18 18 20 21 21 19 19 17 16 17 18 19 22 22 23 24 22 18 15 17 18 16 17 23 24 25 26 24 23 23 23 24 24 23 17 12 11 10 12 13 13 14 16 16 14 14 13 12 13 15 14 14 13 12 15 17 17 18 18 18 18 21 23 23 22 21 16 14 16 17 18
21 19 19 22 22 23 26 30 31 32 32 29 26 24 22 20 21 20 20 21 19 18 19 20 19 17 16 16 17 21 23 23 23 22 20 19 20 21 20 21 26 29 29 26 23 23 24 24 25 25 23 19 13 10 12 13 12 11 12 14 16 18 19 18 17 18 18 16 16 15 15 16 17 18 19 20 20 20 22 23 22 22 21 15 13 16 18 18
22 21 21 22 20 20 24 29 31 31 30 28 26 25 23 22 23 22 24 26 23 22 25 25 24 24 23 20 18 19 21 22 22 22 22 24 25 24 23 24 26 29 29 26 24 24 25 25 25 24 22 20 17 17 19 18 16 14 14 16 18 19 19 21 20 19 19 18 17 18 18 18 19 19 19 20 21 22 24 24 22 23 23 18 16 21 23 22
24 24 24 23 20 19 21 25 27 28 28 27 25 25 25 25 24 24 26 28 27 28 27 25 26 28 28 25 22 23 25 23 24 24 23 24 27 28 27 27 29 31 32 31 28 26 26 27 24 21 21 21 20 22 21 19 18 17 16 18 20 19 20 22 19 16 15 16 18 20 20 20 21 21 21 22 22 23 24 25 24 25 26 24 22 25 27 25
25 25 24 23 22 20 21 22 23 25 25 24 24 26 26 26 26 26 27 29 28 27 24 23 25 27 28 28 26 26 26 24 25 25 24 25 27 28 28 28 32 34 34 34 31 27 25 25 23 22 23 23 23 22 19 17 19 20 18 19 21 22 23 24 23 21 20 20 21 22 22 24 24 25 25 24 22 23 26 27 27 28 30 29 25 25 27 28
25 25 24 24 24 22 21 20 20 22 23 23 24 26 27 27 28 28 29 30 30 28 25 22 20 21 25 29 29 29 28 28 28 27 27 27 26 25 26 27 30 32 33 33 32 28 25 25 25 25 24 25 24 23 19 18 20 23 22 24 27 27 26 27 28 28 28 28 28 28 28 29 28 29 28 26 25 27 28 29 30 29 30 30 27 26 28 30
25 25 25 25 25 24 23 21 20 21 22 23 24 27 28 30 30 30 32 32 31 32 31 27 22 22 26 30 30 30 30 31 29 27 28 27 23 22 24 24 26 28 30 31 30 28 26 26 27 27 27 26 26 25 24 23 25 26 27 28 30 30 29 29 28 27 28 30 30 30 31 30 29 30 30 29 29 30 29 30 31 31 32 33 31 29 30 32
26 27 27 27 26 25 25 24 23 22 22 22 24 26 28 30 30 30 31 30 30 32 34 34 31 29 30 31 31 29 29 31 31 30 29 23 18 22 27 29 28 28 28 30 30 28 27 26 26 27 28 28 28 28 28 27 28 29 29 30 31 32 33 31 29 28 28 29 29 29 29 29 29 31 33 32 32 32 33 33 33 33 34 33 32 31 30 30
25 26 27 27 26 25 26 26 26 26 24 24 26 26 27 28 28 28 29 30 30 30 31 35 35 32 30 31 31 30 30 33 33 33 32 27 19 21 28 34 37 36 35 35 34 33 31 30 30 31 32 32 31 31 30 29 29 30 30 31 32 34 34 34 34 33 32 32 31 30 31 32 32 34 35 35 36 36 36 35 34 35 35 34 33 32 30 30
23 24 24 25 25 25 26 26 27 28 27 26 27 26 27 29 28 27 27 29 31 32 32 35 37 35 34 34 33 31 30 32 34 34 33 31 28 27 30 36 42 45 43 39 37 37 35 34 34 34 35 35 34 34 34 33 33 33 34 35 35 36 36 36 37 37 36 37 37 36 36 38 39 38 37 38 40 40 40 40 40 40 40 39 39 38 36 36
23 22 23 24 25 25 25 25 26 26 26 24 24 23 25 27 28 28 28 29 31 33 34 35 37 38 40 41 39 36 35 36 37 36 33 32 33 34 35 38 42 44 42 38 37 37 36 36 36 36 36 37 36 36 36 36 36 37 38 38 38 38 38 39 40 41 41 42 42 42 42 43 44 44 43 43 44 44 44 46 47 46 44 44 45 44 43 42
23 22 22 23 25 26 25 26 26 26 25 25 25 25 26 26 27 28 29 30 32 33 33 34 35 36 39 40 39 39 41 42 41 40 37 34 34 36 36 37 40 43 41 39 39 38 37 36 37 37 36 36 36 36 37 38 40 41 41 41 41 41 42 42 43 44 45 45 46 47 47 47 48 48 48 47 47 46 46 47 49 49 48 49 50 50 49 47
22 22 21 22 24 27 28 28 27 27 28 29 30 28 28 29 29 29 30 32 35 36 35 36 37 37 36 34 33 35 40 42 42 42 41 37 36 38 38 39 41 43 43 42 43 43 41 39 39 38 37 37 37 38 39 41 42 43 44 44 43 43 43 43 44 46 47 48 48 48 48 50 50 50 49 48 48 48 48 47 47 49 51 52 52 52 52 51
20 21 21 23 24 27 29 29 29 30 31 32 32 31 30 32 32 31 31 35 39 40 38 38 38 37 36 33 33 34 37 38 39 39 39 38 38 39 40 41 42 42 43 44 44 45 45 45 44 43 43 43 43 43 43 43 43 42 43 43 42 42 43 43 45 46 47 48 48 48 49 50 51 50 49 47 45 45 46 47 47 47 49 50 49 50 51 51
Wind_Direction
249 249 249 249 250 250 250 250 249 249 249 250 250 251 252 253 253 254 254 255 256 256 256 257 258 258 258 258 258 258 258 257 257 256 256 256 255 254 254 252 250 250 249 248 248 247 247 247 247 248 250 251 251 252 251 251 251 252 256 256 257 251 248 242 225 198 187 235 247 242 243 239 240 243 246 252 258 266 272 267 259 257 255 254 255 254 256 258
249 248 249 249 249 250 250 250 250 250 249 250 251 252 253 253 254 255 256 256 257 258 259 260 260 260 260 260 259 259 259 258 257 257 256 255 253 253 252 252 249 247 246 245 244 244 244 244 245 246 247 248 247 250 249 249 251 251 254 253 255 248 241 229 200 185 194 230 247 245 247 246 243 248 253 256 262 269 277 266 256 257 257 257 258 257 258 257
249 249 249 249 249 250 250 250 250 251 250 250 251 252 253 253 254 255 256 257 259 261 262 262 262 261 260 260 259 259 259 258 256 255 255 253 252 252 251 250 248 246 245 243 242 242 243 242 243 244 244 245 245 248 247 247 250 250 253 252 251 238 228 201 175 186 222 234 245 249 251 254 253 253 255 257 259 269 284 273 257 255 259 262 262 261 261 258
251 251 251 251 251 251 250 250 251 251 251 251 251 253 254 254 255 255 256 259 262 264 265 264 263 262 260 259 259 258 258 256 255 254 253 251 249 249 249 249 247 245 243 242 241 241 241 241 241 242 242 243 243 245 247 248 249 247 250 250 238 228 223 199 183 195 228 238 242 244 252 259 260 261 262 265 265 267 274 271 263 258 260 263 262 262 261 259
252 252 252 252 252 252 252 251 251 252 252 252 253 254 254 254 255 255 257 262 265 266 266 264 263 262 261 259 258 257 256 255 254 251 249 247 246 246 246 247 246 244 242 241 240 238 238 238 239 240 241 241 242 244 247 249 249 245 243 244 235 228 227 213 204 211 227 239 245 245 255 260 258 260 265 272 271 266 263 265 270 270 265 261 260 260 263 266
253 253 253 253 253 253 253 252 251 252 253 253 254 254 254 254 255 256 261 265 267 267 266 265 263 263 262 260 258 256 254 254 252 250 247 245 245 245 245 246 245 242 241 240 239 238 237 238 238 239 240 241 242 243 245 247 247 246 241 239 238 234 235 231 229 237 244 253 261 260 264 261 255 258 265 272 268 267 264 261 267 270 266 263 261 261 271 282
255 254 254 254 254 254 254 253 252 252 253 254 254 254 255 254 255 259 264 266 266 267 267 267 266 265 264 262 260 256 253 251 250 249 247 245 244 244 245 244 243 241 240 239 238 237 237 238 239 239 239 240 241 242 243 245 245 245 243 238 237 235 236 237 238 246 257 267 271 264 262 255 253 258 267 267 263 268 271 265 264 266 266 266 266 266 275 282
257 256 256 256 256 256 255 254 253 253 253 254 254 253 254 254 257 261 264 265 265 267 269 270 270 269 267 264 261 257 254 250 247 246 245 243 243 243 243 242 241 240 239 239 238 238 238 238 239 238 238 238 239 240 240 242 243 244 243 240 237 235 237 242 248 255 265 274 271 257 250 246 250 257 260 259 263 270 270 267 263 262 266 268 270 273 272 270
259 258 257 257 257 257 256 255 254 253 253 253 253 252 252 254 258 261 262 262 263 266 270 273 273 272 269 265 262 258 255 251 246 244 243 242 242 242 241 240 239 239 239 239 239 238 238 237 236 235 235 235 236 238 240 242 244 244 243 244 242 239 239 242 250 258 268 275 272 261 252 249 250 253 254 257 264 267 266 267 267 265 268 272 274 276 272 266
261 260 258 258 258 257 256 255 254 253 252 251 251 251 252 254 257 259 259 259 261 265 269 272 275 274 271 267 263 259 255 253 249 245 244 242 242 241 240 239 239 239 239 239 238 237 237 237 236 235 234 237 239 241 245 247 248 248 247 247 244 241 242 244 249 260 269 268 266 265 262 256 250 252 253 255 260 265 268 269 270 269 269 272 273 271 270 266
261 260 260 259 258 257 255 254 252 251 250 248 248 249 251 253 255 256 256 257 259 262 266 269 272 275 275 271 265 261 256 254 252 248 246 244 242 242 240 240 239 239 239 238 237 237 238 237 236 237 238 240 242 243 245 247 249 250 250 248 246 244 244 248 254 259 260 259 261 261 258 255 255 257 255 254 258 264 268 268 266 266 267 269 268 268 270 270
260 260 260 259 258 255 253 252 250 248 246 245 246 247 248 250 252 253 254 256 258 261 264 266 269 271 273 273 270 266 258 254 254 251 248 246 244 243 242 240 239 238 238 238 238 237 237 237 236 236 237 239 241 243 244 246 248 249 250 251 252 249 245 250 255 255 256 259 262 258 256 257 260 264 258 257 261 262 264 268 268 267 268 269 271 275 277 277
259 259 259 258 257 254 252 250 248 245 243 243 244 244 244 247 249 251 253 255 258 260 263 264 265 266 268 271 272 268 261 255 252 250 247 245 242 242 241 240 239 238 238 239 239 238 236 235 234 234 237 240 243 246 248 250 251 252 252 254 255 251 250 249 249 253 257 259 259 257 257 260 262 266 262 260 264 268 270 273 274 274 272 268 271 276 278 278
257 257 257 256 255 253 250 248 245 242 242 242 242 242 243 245 248 251 253 255 258 259 261 262 262 263 265 266 266 264 263 260 254 250 247 243 240 239 239 238 238 238 237 238 237 236 235 233 232 234 234 234 236 241 245 245 247 247 246 250 254 252 250 245 243 244 250 257 258 256 258 262 265 263 260 266 270 272 274 278 278 276 272 267 267 271 273 274
255 254 254 254 252 251 249 246 243 241 241 241 240 240 242 246 249 251 253 255 257 259 259 261 261 261 262 262 263 263 263 262 259 254 249 245 243 241 240 239 237 237 236 236 236 233 234 232 231 232 231 232 235 235 237 238 236 237 239 246 245 225 229 243 245 229 238 262 259 253 256 260 268 247 240 263 275 271 269 276 278 271 262 260 263 268 271 273
253 252 251 250 249 249 248 245 243 242 242 241 239 240 242 246 248 250 252 255 257 259 260 260 260 259 259 260 262 262 261 262 261 258 254 250 247 244 242 240 239 239 238 238 239 238 236 234 232 231 231 234 236 234 234 235 232 232 220 187 177 207 225 255 288 274 287 286 275 269 254 215 201 223 231 245 264 268 269 272 272 269 264 258 262 265 266 272
252 250 249 248 248 247 246 245 243 243 243 242 239 238 241 244 247 249 251 254 257 259 260 261 260 259 259 259 258 260 262 261 260 258 257 254 250 246 242 240 239 239 240 240 240 240 238 234 233 233 235 233 232 239 237 220 206 205 183 151 146 210 239 285 313 299 303 293 283 277 201 191 201 213 234 244 253 264 271 274 271 273 273 266 266 268 263 266
251 250 249 248 247 246 245 245 244 244 244 242 239 238 240 243 246 249 251 254 257 259 261 261 261 259 259 259 259 263 265 260 257 255 254 254 252 249 245 241 240 238 239 240 239 239 236 235 236 232 233 226 211 196 197 204 197 195 187 150 131 111 48 304 293 282 286 281 285 273 172 189 211 212 230 247 250 260 265 269 270 273 277 276 275 272 264 260
252 251 250 249 248 247 246 245 245 246 245 243 241 239 240 242 245 249 251 254 257 259 261 262 261 260 260 259 260 263 263 259 257 257 255 254 254 252 249 245 242 239 238 238 237 236 234 234 235 231 222 214 205 188 188 211 213 202 195 150 136 137 166 275 278 266 265 258 272 284 177 194 220 227 239 254 256 260 260 264 270 272 276 281 282 275 266 261
254 252 251 250 249 248 246 246 246 246 246 244 242 240 240 241 244 247 250 253 256 259 262 263 262 262 261 260 260 259 259 259 258 258 258 256 255 252 250 247 243 240 237 238 237 236 235 230 233 239 231 222 223 218 209 223 229 199 183 170 166 175 188 218 249 249 249 243 250 266 190 189 212 257 274 279 275 272 263 260 267 274 278 282 284 277 266 263
256 254 253 251 250 249 248 247 247 246 246 245 243 241 240 241 243 244 247 251 254 257 259 261 263 264 263 261 257 254 257 258 256 256 256 255 253 251 249 247 244 241 237 238 237 237 238 226 225 237 237 233 231 230 215 210 221 196 181 191 187 163 173 209 234 244 246 243 250 258 197 183 190 229 255 273 279 277 269 263 266 274 279 281 284 279 268 264
259 256 255 253 252 251 250 248 247 246 246 245 244 242 241 242 243 244 246 248 252 254 257 259 262 264 264 263 258 254 256 256 255 256 255 253 252 250 249 247 246 245 241 239 234 233 237 227 224 229 228 232 231 229 219 205 210 199 185 192 187 167 179 207 223 239 248 246 248 251 223 208 211 213 226 253 265 265 266 269 272 273 277 279 279 274 267 264
261 259 256 255 254 253 252 251 248 246 245 245 244 244 243 243 244 245 246 248 250 253 256 258 260 263 265 266 261 257 257 257 258 257 253 252 251 250 249 248 246 245 242 240 231 226 234 228 226 233 229 226 228 226 225 218 216 206 190 188 189 185 182 193 230 246 255 254 253 250 240 241 228 212 213 225 242 254 259 266 273 275 277 280 278 274 271 268
262 261 258 255 255 254 253 251 250 248 246 246 246 245 245 245 246 247 247 248 250 252 255 256 260 264 265 265 263 261 261 260 258 256 254 253 252 250 246 245 245 247 246 244 240 228 229 233 232 237 237 232 236 232 226 224 220 213 197 186 189 198 187 183 237 251 251 253 258 258 253 255 231 216 220 222 228 242 252 261 272 270 268 273 276 275 274 274
262 260 260 257 255 254 254 253 251 249 248 247 248 247 247 247 247 249 249 249 251 253 255 257 261 263 264 264 263 261 260 260 257 253 249 250 252 247 240 242 244 248 249 243 241 228 224 246 251 245 240 234 235 231 222 220 219 216 206 196 195 201 195 194 217 237 243 244 249 257 260 258 232 223 233 230 222 235 249 259 269 266 263 270 271 267 269 274
267 261 259 258 256 254 253 252 250 250 249 248 248 248 249 249 249 250 251 251 253 255 256 258 258 260 263 263 261 259 257 256 255 252 246 245 248 241 235 241 243 241 249 251 244 230 231 254 258 249 242 238 231 223 221 220 221 217 213 212 206 202 204 208 217 230 239 242 242 247 251 247 234 227 230 226 222 235 251 258 265 267 268 274 269 265 268 273
268 264 260 257 255 255 253 250 249 249 248 247 247 248 248 250 250 251 252 253 254 256 257 259 258 259 261 259 256 255 250 244 248 254 254 245 243 242 236 241 237 223 236 250 234 217 229 246 255 255 246 240 232 223 225 224 223 223 221 225 222 211 211 217 222 231 238 244 247 245 241 236 237 239 236 233 232 239 254 263 266 266 270 276 272 267 269 272
264 264 262 258 254 254 252 251 250 249 248 246 247 248 248 249 250 251 253 254 254 256 257 259 257 253 254 254 249 244 243 242 246 255 255 245 245 245 236 233 229 223 230 233 213 207 220 232 247 258 248 238 237 228 232 232 225 227 226 228 233 227 223 226 227 231 238 244 247 248 248 247 249 250 243 240 239 240 249 258 264 264 266 270 269 267 270 274
262 260 260 258 256 254 252 252 253 252 251 250 249 250 250 250 251 251 253 255 256 257 257 256 251 244 247 249 243 243 248 245 245 251 244 233 237 236 226 229 233 237 238 230 215 214 224 233 241 254 255 248 243 228 226 231 227 230 228 229 239 237 236 238 234 231 236 242 246 248 253 258 261 258 249 241 235 233 239 250 258 262 262 263 267 272 274 272
261 259 257 256 255 254 253 252 253 253 253 252 252 252 252 253 253 254 256 256 255 255 253 252 247 240 245 248 241 244 251 246 242 252 252 240 232 227 221 230 237 240 239 236 234 227 227 237 243 254 259 251 239 230 226 222 217 225 232 239 247 247 247 245 240 237 239 243 250 252 253 257 260 258 255 249 241 238 238 244 250 253 256 256 262 274 279 277
261 259 257 255 254 253 253 252 252 253 253 253 252 251 252 252 251 252 255 254 251 252 253 251 247 244 244 245 240 237 245 246 234 237 250 247 231 224 224 231 235 235 237 245 257 245 229 237 248 250 248 241 237 239 239 234 227 226 232 244 251 251 249 238 232 238 242 245 251 251 247 248 251 253 254 251 246 245 244 244 245 247 251 253 258 272 284 285
262 261 259 257 255 254 254 252 252 252 250 250 250 249 248 246 246 248 251 249 244 247 251 246 243 251 252 248 245 238 237 243 229 218 236 245 226 222 229 234 234 231 236 242 248 242 230 235 247 249 240 235 234 239 245 248 250 240 238 251 256 249 245 234 227 235 242 246 248 247 245 244 246 248 247 244 241 243 247 246 245 248 251 254 259 267 274 276
263 261 260 259 258 257 257 255 254 253 250 248 245 244 244 243 244 245 243 245 241 242 249 241 230 240 255 255 250 239 231 235 230 223 236 251 236 226 225 228 234 227 223 230 234 238 239 239 247 255 252 242 232 234 240 242 242 243 245 253 254 244 238 235 234 237 243 246 245 245 246 243 244 246 240 237 237 238 243 246 247 252 256 259 259 260 264 272
262 261 260 260 259 258 258 256 255 253 250 246 243 243 244 243 245 243 240 242 242 241 244 243 231 220 232 244 240 236 233 233 232 226 233 246 244 233 218 221 234 224 206 220 234 238 245 245 238 238 241 242 242 235 230 225 223 234 249 258 264 256 246 243 244 244 246 250 247 245 248 244 238 238 236 236 238 238 242 246 250 255 258 259 259 261 267 272
261 260 259 259 258 257 257 256 256 254 251 247 245 245 245 245 244 236 234 234 234 239 246 249 243 218 213 227 228 227 227 228 233 228 224 235 242 238 224 221 230 222 209 224 243 239 241 237 218 224 230 221 232 233 212 208 211 213 232 254 272 265 255 252 251 246 243 248 247 243 248 248 238 236 239 242 247 250 247 247 252 255 257 262 266 270 272 267
261 260 258 257 257 256 256 255 255 255 252 249 247 246 246 247 240 229 230 228 217 222 244 248 238 210 204 217 223 221 218 223 233 229 220 227 236 236 238 232 219 216 212 217 234 237 232 220 201 230 247 224 221 218 193 200 211 212 213 218 249 264 260 255 251 245 241 242 245 245 248 255 257 259 260 257 258 259 257 256 259 261 264 270 274 275 273 269
263 260 259 257 254 254 255 254 254 253 253 251 249 248 246 245 239 228 226 223 209 207 228 237 238 223 214 214 212 210 215 225 236 234 222 220 227 230 237 237 223 223 219 211 217 228 226 212 194 196 221 232 233 217 202 216 227 220 208 202 228 268 271 258 248 245 248 247 247 248 249 254 259 263 265 265 262 260 260 261 263 265 266 269 271 269 269 269
265 263 261 257 253 253 253 253 253 251 251 250 249 250 248 244 239 231 227 226 220 222 228 232 239 243 235 223 207 203 216 225 229 230 221 215 222 223 222 233 236 237 232 221 219 228 227 215 205 197 196 209 231 220 219 245 245 228 215 212 223 243 256 260 257 252 254 253 250 248 245 250 253 255 259 263 261 259 263 265 265 267 267 264 261 261 265 269
268 268 265 260 255 253 251 251 251 249 248 248 248 249 247 242 236 229 225 227 230 236 238 235 237 239 241 236 213 204 214 221 221 223 220 218 227 223 209 220 233 234 236 235 231 236 234 220 214 210 200 204 220 222 235 257 248 228 217 218 223 224 233 251 258 256 254 251 252 252 244 243 244 246 252 256 251 249 258 265 267 270 269 265 260 263 271 275
269 270 268 264 260 254 249 247 248 248 249 248 246 245 243 239 234 226 215 214 223 239 238 233 233 227 229 240 230 217 218 218 216 215 213 214 224 224 211 211 224 229 233 238 235 235 236 226 219 217 214 217 219 214 228 242 239 223 213 218 226 228 235 243 244 247 251 249 251 253 248 244 244 244 247 250 249 248 254 260 265 270 272 272 269 273 279 279
267 265 264 265 264 259 251 247 247 247 248 246 243 241 238 234 231 227 221 214 214 228 231 227 228 224 221 227 232 232 231 226 223 219 216 214 213 217 218 218 225 229 230 235 233 229 231 232 229 226 225 230 227 218 219 225 228 226 218 221 230 235 242 245 240 238 242 246 251 253 251 252 254 254 253 253 253 254 258 261 265 270 272 273 275 278 280 276
262 260 260 263 264 261 256 252 249 247 246 244 241 238 235 233 229 227 229 226 221 226 231 228 226 228 230 230 229 233 236 234 230 227 228 227 218 213 217 221 227 231 233 237 237 234 236 238 240 238 234 235 234 230 231 235 239 242 236 231 235 243 248 249 249 247 246 249 253 254 255 258 260 262 263 264 259 257 262 267 269 270 272 273 275 276 274 267
259 258 258 258 259 258 257 256 253 250 247 243 238 236 233 232 230 227 230 232 227 228 236 237 231 230 234 236 233 234 238 239 237 232 233 238 232 223 220 221 224 229 234 240 242 241 241 242 243 242 238 237 238 241 244 245 245 247 245 243 242 244 248 251 256 262 262 259 258 260 262 265 267 267 266 268 268 267 270 273 272 272 274 275 275 272 267 266
255 254 252 251 251 252 253 255 252 248 244 239 234 233 232 231 230 227 228 230 226 226 236 242 235 228 231 233 231 230 232 237 240 238 238 243 243 236 230 225 225 227 231 237 241 241 240 240 241 241 241 240 242 245 240 229 233 238 240 247 250 249 251 255 257 261 263 262 261 262 263 264 267 268 267 268 270 271 273 273 273 274 275 276 275 270 267 270
252 249 247 245 245 245 246 246 245 243 241 237 233 230 229 229 228 226 229 232 229 226 230 232 226 223 228 231 231 230 231 234 239 241 242 251 256 248 236 229 229 231 232 234 237 238 241 244 244 242 242 241 243 247 243 233 236 240 241 249 256 257 258 258 257 260 262 264 266 265 263 263 265 267 269 270 270 270 270 271 272 273 273 273 272 269 269 271
250 247 246 246 244 243 242 241 241 241 240 239 237 235 233 233 233 231 233 237 236 232 231 232 231 230 231 232 232 233 234 234 235 236 236 243 255 254 246 240 238 238 239 240 240 240 241 244 245 244 245 246 246 249 250 248 248 248 247 251 256 259 263 264 262 261 263 265 269 268 266 266 267 269 271 272 271 271 271 271 272 273 272 270 270 271 271 271
249 248 249 249 246 242 240 241 241 239 237 238 238 235 232 232 232 232 234 237 238 237 234 234 235 233 232 235 236 236 237 239 239 239 236 231 229 242 248 248 247 246 245 246 250 253 253 252 251 252 254 255 252 248 248 249 250 250 251 253 255 257 261 265 266 267 267 267 268 267 265 267 269 269 271 273 273 272 270 270 271 272 270 268 270 272 272 273
249 247 245 246 246 242 240 241 242 241 239 241 242 239 236 234 230 227 230 234 237 238 236 234 235 235 236 239 239 235 237 242 244 244 244 238 231 233 243 248 252 253 253 253 255 257 259 259 257 256 256 256 254 250 247 247 247 248 250 252 254 256 258 261 264 265 265 266 265 263 263 265 266 265 267 270 273 273 271 271 271 270 270 270 270 270 271 274
248 244 241 240 240 240 239 237 236 237 238 239 242 241 238 236 233 230 230 232 235 238 238 238 239 240 240 241 241 239 237 239 241 242 244 245 244 244 248 253 258 261 262 263 260 257 258 260 258 257 256 256 255 255 253 252 250 249 250 251 254 256 257 259 261 262 264 266 267 266 266 267 267 266 267 269 270 270 271 272 272 272 271 270 269 268 270 273
245 242 239 237 235 234 234 233 230 231 234 234 233 234 235 234 232 230 230 232 235 237 238 239 241 243 245 245 245 245 243 242 242 242 242 243 247 251 253 257 261 263 264 266 266 262 260 259 257 256 257 258 259 259 258 257 255 253 253 253 254 255 257 259 262 265 266 267 269 270 270 269 268 268 270 270 269 268 267 268 270 272 272 270 270 269 269 270
240 239 236 235 233 231 231 231 229 228 230 232 231 232 235 236 233 230 229 232 236 236 233 232 236 240 243 244 244 245 246 247 246 246 245 245 247 251 254 256 260 263 264 266 267 265 265 265 264 262 262 263 264 264 262 261 261 261 261 261 261 261 261 262 264 266 266 267 268 269 270 269 270 271 271 271 271 270 267 264 265 268 269 270 270 271 270 270
236 236 234 232 231 232 233 233 231 230 230 231 232 232 234 236 235 232 231 232 236 238 235 233 236 240 242 242 243 244 247 250 251 251 251 251 250 252 254 255 257 261 263 266 267 267 268 269 269 268 268 268 268 268 267 267 266 265 264 265 265 265 265 264 263 263 264 265 266 266 267 268 270 271 271 271 271 270 268 266 265 265 267 270 271 271 271 269
Height
5754 5755 5756 5756 5757 5757 5758 5758 5759 5759 5760 5761 5761 5762 5762 5763 5763 5764 5764 5765 5765 5766 5766 5766 5767 5767 5767 5768 5768 5768 5769 5770 5770 5771 5771 5773 5773 5774 5775 5776 5777 5777 5778 5779 5779 5780 5781 5781 5782 5782 5783 5784 5784 5784 5785 5785 5786 5786 5787 5788 5789 5791 5793 5795 5797 5798 5800 5799 5797 5797 5797 5797 5797 5796 5796 5798 5799 5803 5803 5799 5800 5802 5802 5803 5803 5805 5806 5807
5752 5753 5753 5754 5754 5755 5755 5756 5757 5757 5758 5758 5759 5759 5760 5760 5761 5761 5762 5762 5763 5763 5763 5764 5764 5764 5765 5765 5765 5766 5766 5767 5767 5768 5769 5770 5770 5771 5772 5773 5774 5774 5775 5776 5777 5778 5778 5779 5779 5780 5781 5781 5782 5782 5783 5783 5784 5784 5785 5786 5788 5790 5792 5794 5796 5795 5795 5795 5794 5794 5793 5793 5795 5796 5797 5800 5798 5800 5799 5795 5798 5799 5799 5801 5801 5803 5803 5806
5750 5750 5751 5751 5752 5752 5753 5754 5754 5755 5755 5756 5756 5757 5757 5758 5758 5759 5760 5760 5760 5761 5761 5761 5761 5762 5762 5762 5762 5763 5763 5764 5764 5765 5766 5767 5767 5768 5769 5770 5771 5772 5772 5773 5774 5775 5776 5777 5777 5778 5778 5779 5780 5780 5781 5781 5782 5783 5783 5785 5787 5789 5789 5791 5793 5792 5791 5790 5791 5791 5791 5790 5792 5796 5797 5798 5798 5799 5797 5793 5796 5797 5797 5798 5798 5800 5801 5804
5747 5748 5748 5749 5749 5750 5751 5751 5752 5752 5753 5753 5754 5755 5755 5756 5756 5757 5757 5758 5758 5758 5758 5758 5759 5759 5759 5759 5760 5760 5761 5761 5761 5762 5763 5764 5765 5765 5766 5767 5768 5769 5770 5771 5772 5773 5774 5774 5775 5776 5776 5777 5778 5778 5778 5779 5780 5781 5782 5783 5785 5786 5786 5788 5787 5785 5784 5784 5787 5789 5791 5790 5790 5793 5793 5796 5798 5797 5795 5791 5793 5796 5797 5797 5796 5796 5798 5801
5745 5745 5746 5746 5747 5747 5748 5749 5749 5750 5750 5751 5752 5752 5753 5753 5754 5754 5755 5755 5755 5755 5756 5756 5756 5756 5756 5757 5757 5758 5758 5758 5758 5759 5760 5761 5762 5763 5763 5764 5765 5766 5767 5769 5770 5770 5771 5772 5773 5773 5774 5775 5776 5776 5777 5777 5778 5779 5780 5782 5783 5783 5784 5785 5783 5781 5781 5781 5784 5789 5791 5790 5789 5790 5790 5794 5794 5791 5793 5792 5792 5795 5795 5794 5793 5793 5796 5798
5742 5743 5743 5744 5744 5745 5745 5746 5747 5747 5748 5749 5749 5750 5750 5751 5752 5752 5753 5753 5753 5753 5753 5753 5753 5753 5754 5754 5754 5755 5755 5755 5755 5756 5757 5758 5759 5760 5761 5762 5763 5764 5765 5766 5767 5768 5769 5770 5771 5771 5772 5773 5774 5775 5775 5776 5776 5777 5779 5780 5780 5781 5782 5783 5783 5782 5781 5782 5786 5789 5790 5789 5789 5789 5789 5792 5789 5786 5791 5791 5791 5793 5792 5791 5791 5792 5795 5795
5740 5740 5741 5741 5742 5742 5743 5743 5744 5745 5745 5746 5747 5747 5748 5749 5749 5750 5750 5751 5751 5751 5751 5751 5751 5751 5751 5752 5752 5753 5753 5753 5753 5754 5755 5756 5756 5757 5758 5759 5760 5761 5762 5763 5764 5765 5766 5767 5768 5769 5770 5771 5772 5773 5773 5773 5774 5775 5777 5778 5778 5779 5780 5780 5780 5780 5780 5782 5785 5787 5788 5788 5787 5788 5790 5789 5785 5784 5787 5789 5790 5790 5788 5789 5789 5791 5794 5795
5737 5738 5738 5739 5739 5740 5740 5741 5742 5742 5743 5744 5744 5745 5746 5746 5747 5748 5748 5748 5748 5748 5748 5749 5749 5749 5749 5749 5750 5750 5750 5750 5751 5751 5752 5753 5754 5755 5756 5757 5758 5759 5760 5761 5762 5763 5764 5765 5766 5767 5768 5769 5770 5770 5770 5771 5772 5773 5774 5775 5776 5777 5777 5777 5778 5778 5779 5780 5782 5784 5785 5786 5786 5786 5788 5786 5781 5782 5784 5786 5788 5787 5786 5787 5788 5790 5793 5793
5735 5735 5736 5736 5737 5737 5738 5739 5739 5740 5741 5741 5742 5743 5743 5744 5745 5745 5746 5746 5746 5746 5747 5747 5747 5747 5747 5747 5748 5748 5748 5748 5749 5749 5750 5751 5752 5753 5754 5754 5755 5756 5757 5758 5759 5760 5761 5762 5763 5764 5765 5766 5766 5766 5767 5768 5769 5771 5771 5772 5774 5775 5775 5776 5776 5776 5777 5778 5779 5781 5783 5784 5784 5784 5786 5783 5779 5779 5781 5783 5786 5786 5786 5786 5786 5788 5790 5791
5732 5733 5733 5734 5734 5735 5735 5736 5737 5738 5738 5739 5740 5740 5741 5742 5743 5743 5744 5744 5744 5745 5745 5745 5745 5745 5745 5746 5746 5746 5746 5746 5746 5747 5748 5749 5750 5750 5751 5752 5753 5754 5755 5756 5757 5758 5758 5759 5760 5761 5762 5762 5764 5765 5765 5766 5767 5768 5768 5770 5771 5771 5773 5773 5774 5774 5775 5776 5777 5779 5780 5781 5781 5782 5783 5780 5777 5778 5780 5782 5784 5785 5785 5785 5785 5786 5787 5788
5730 5730 5731 5731 5732 5733 5733 5734 5735 5735 5736 5737 5737 5738 5739 5740 5740 5741 5742 5742 5742 5743 5743 5743 5744 5744 5744 5744 5744 5744 5744 5744 5744 5745 5746 5747 5747 5748 5749 5750 5751 5752 5752 5753 5754 5755 5756 5757 5757 5759 5760 5760 5762 5763 5763 5764 5764 5765 5765 5766 5767 5769 5770 5770 5772 5773 5773 5774 5775 5776 5777 5778 5778 5780 5781 5777 5775 5777 5778 5781 5783 5784 5784 5784 5783 5784 5785 5786
5728 5728 5729 5729 5730 5730 5731 5732 5732 5733 5734 5734 5735 5736 5737 5737 5738 5739 5739 5740 5740 5741 5741 5742 5742 5742 5742 5742 5742 5742 5743 5743 5743 5743 5744 5745 5746 5746 5747 5748 5749 5749 5750 5751 5751 5752 5753 5754 5755 5756 5757 5758 5759 5759 5760 5761 5762 5762 5763 5763 5765 5766 5767 5769 5769 5770 5771 5772 5772 5774 5775 5776 5777 5778 5777 5773 5773 5776 5778 5779 5781 5783 5783 5783 5782 5782 5783 5784
5725 5726 5726 5727 5727 5728 5729 5729 5730 5730 5731 5732 5733 5733 5734 5735 5736 5737 5737 5738 5738 5739 5739 5740 5740 5741 5741 5741 5741 5741 5741 5741 5741 5742 5742 5743 5744 5744 5745 5746 5747 5747 5748 5749 5749 5750 5751 5752 5753 5753 5755 5756 5757 5757 5758 5759 5760 5760 5760 5761 5763 5764 5765 5766 5766 5767 5769 5769 5769 5771 5773 5774 5775 5776 5774 5771 5772 5774 5776 5776 5777 5780 5782 5782 5780 5780 5781 5781
5723 5723 5724 5724 5725 5726 5726 5727 5728 5728 5729 5730 5730 5731 5732 5733 5734 5734 5735 5736 5736 5737 5737 5738 5738 5739 5739 5739 5739 5739 5739 5740 5740 5740 5741 5742 5742 5743 5743 5744 5745 5745 5746 5747 5747 5748 5748 5749 5750 5751 5753 5754 5754 5755 5756 5757 5757 5758 5759 5760 5761 5762 5763 5762 5764 5767 5767 5766 5766 5770 5772 5773 5774 5774 5771 5769 5770 5772 5774 5773 5774 5776 5779 5779 5779 5779 5779 5779
5720 5721 5721 5722 5723 5723 5724 5725 5725 5726 5727 5727 5728 5729 5730 5731 5731 5732 5733 5734 5734 5735 5735 5736 5736 5737 5737 5737 5738 5738 5738 5738 5739 5739 5740 5740 5741 5741 5742 5742 5743 5743 5744 5744 5745 5746 5746 5747 5748 5749 5750 5750 5751 5753 5753 5754 5755 5756 5757 5759 5760 5760 5760 5760 5762 5765 5765 5763 5764 5768 5770 5771 5772 5771 5769 5768 5769 5770 5772 5772 5773 5775 5776 5777 5777 5778 5778 5778
5718 5718 5719 5720 5720 5721 5722 5722 5723 5724 5724 5725 5726 5727 5728 5729 5729 5730 5731 5732 5732 5733 5733 5734 5734 5735 5735 5735 5736 5736 5737 5737 5737 5737 5738 5738 5739 5739 5740 5740 5741 5741 5742 5743 5743 5744 5745 5745 5746 5747 5747 5748 5750 5750 5751 5752 5754 5754 5756 5758 5759 5758 5757 5758 5760 5762 5763 5762 5762 5765 5769 5769 5768 5767 5767 5768 5768 5768 5769 5771 5772 5774 5774 5775 5776 5777 5777 5777
5716 5716 5717 5717 5718 5719 5719 5720 5721 5721 5722 5723 5724 5725 5725 5726 5727 5728 5729 5729 5730 5730 5731 5732 5732 5733 5733 5733 5734 5734 5735 5735 5736 5736 5736 5737 5737 5738 5738 5739 5739 5740 5740 5741 5741 5742 5743 5743 5744 5745 5746 5747 5748 5749 5750 5750 5751 5752 5753 5755 5757 5757 5756 5756 5758 5760 5763 5762 5762 5764 5766 5767 5765 5765 5766 5768 5769 5767 5766 5768 5769 5770 5771 5772 5774 5775 5776 5777
5713 5714 5714 5715 5716 5716 5717 5718 5718 5719 5719 5720 5721 5722 5723 5724 5725 5726 5727 5727 5728 5728 5729 5730 5730 5730 5731 5731 5732 5733 5733 5734 5734 5734 5734 5735 5735 5736 5736 5737 5737 5738 5738 5739 5740 5740 5741 5742 5742 5743 5744 5745 5746 5748 5748 5747 5747 5748 5750 5753 5755 5756 5757 5757 5758 5760 5762 5761 5761 5763 5765 5765 5764 5764 5766 5768 5769 5767 5765 5765 5766 5766 5766 5768 5771 5772 5773 5774
5711 5712 5712 5713 5713 5714 5715 5715 5716 5716 5717 5718 5719 5720 5721 5722 5722 5723 5724 5725 5726 5726 5727 5727 5728 5728 5729 5729 5730 5731 5731 5732 5732 5732 5733 5733 5733 5734 5734 5735 5736 5736 5737 5737 5738 5738 5739 5740 5741 5741 5742 5743 5743 5745 5745 5745 5745 5746 5749 5752 5754 5755 5757 5758 5759 5759 5760 5760 5760 5763 5764 5764 5764 5764 5766 5767 5767 5765 5764 5764 5763 5763 5763 5764 5766 5767 5768 5770
5709 5710 5710 5711 5711 5712 5712 5713 5713 5714 5715 5715 5716 5717 5718 5719 5720 5721 5722 5723 5723 5724 5725 5725 5725 5726 5726 5727 5729 5729 5729 5729 5730 5730 5731 5731 5732 5732 5733 5733 5734 5734 5735 5735 5736 5737 5737 5738 5739 5740 5741 5741 5741 5742 5743 5744 5745 5746 5748 5753 5754 5754 5757 5759 5759 5758 5759 5760 5760 5762 5763 5764 5765 5765 5766 5766 5765 5763 5763 5763 5762 5761 5762 5763 5763 5764 5765 5765
5707 5708 5708 5708 5709 5709 5710 5711 5711 5712 5712 5713 5714 5714 5715 5716 5717 5719 5720 5720 5721 5722 5723 5723 5723 5723 5724 5725 5727 5727 5727 5727 5728 5728 5729 5729 5730 5730 5731 5732 5732 5733 5733 5734 5735 5736 5736 5737 5738 5739 5740 5740 5740 5741 5742 5743 5745 5745 5747 5751 5754 5754 5755 5757 5757 5756 5757 5759 5760 5760 5761 5763 5764 5765 5765 5764 5762 5760 5760 5760 5761 5761 5761 5761 5762 5763 5763 5763
5705 5706 5706 5706 5707 5707 5708 5708 5709 5709 5710 5710 5711 5712 5713 5713 5715 5716 5717 5718 5719 5719 5720 5721 5721 5721 5722 5723 5724 5725 5725 5725 5726 5726 5727 5727 5728 5728 5729 5730 5730 5731 5732 5732 5734 5734 5735 5735 5735 5736 5738 5739 5739 5740 5741 5742 5743 5744 5745 5749 5753 5752 5752 5754 5755 5754 5755 5758 5759 5759 5760 5761 5761 5762 5763 5763 5760 5758 5758 5758 5759 5760 5760 5760 5760 5761 5762 5762
5703 5704 5704 5704 5705 5705 5705 5706 5706 5707 5707 5708 5708 5709 5710 5711 5712 5713 5714 5715 5716 5717 5718 5719 5719 5719 5720 5720 5721 5722 5722 5723 5724 5724 5725 5725 5726 5727 5727 5728 5728 5729 5730 5730 5732 5733 5733 5733 5733 5734 5736 5737 5737 5738 5739 5740 5741 5743 5744 5747 5751 5751 5750 5751 5752 5752 5752 5754 5755 5756 5758 5760 5760 5760 5760 5761 5760 5758 5757 5757 5758 5758 5757 5757 5757 5758 5759 5760
5701 5701 5702 5702 5702 5703 5703 5703 5704 5704 5704 5705 5706 5707 5708 5708 5709 5710 5711 5713 5714 5715 5716 5716 5717 5717 5718 5718 5718 5719 5720 5720 5722 5722 5723 5723 5723 5725 5726 5726 5726 5727 5728 5729 5730 5731 5731 5731 5731 5733 5734 5735 5735 5736 5737 5739 5739 5741 5743 5745 5748 5749 5748 5747 5748 5749 5749 5750 5751 5752 5754 5756 5759 5759 5758 5759 5759 5758 5757 5757 5758 5758 5756 5754 5754 5755 5756 5756
5699 5699 5699 5700 5700 5700 5700 5701 5701 5701 5702 5703 5704 5705 5705 5706 5707 5708 5709 5710 5712 5713 5713 5714 5715 5715 5715 5715 5716 5717 5717 5718 5719 5719 5720 5721 5721 5723 5723 5723 5725 5725 5726 5726 5728 5728 5729 5729 5730 5731 5732 5733 5733 5734 5736 5737 5738 5739 5741 5743 5746 5748 5747 5745 5744 5745 5746 5748 5749 5749 5750 5753 5755 5757 5757 5758 5758 5757 5756 5757 5757 5755 5754 5753 5753 5753 5754 5753
5696 5697 5697 5697 5698 5698 5698 5699 5699 5699 5700 5702 5702 5702 5704 5704 5705 5706 5706 5708 5709 5710 5711 5712 5713 5713 5712 5712 5713 5713 5714 5715 5715 5715 5717 5719 5719 5720 5721 5722 5723 5724 5724 5724 5726 5727 5727 5728 5729 5729 5730 5731 5732 5733 5734 5735 5736 5737 5739 5741 5743 5745 5745 5743 5742 5742 5743 5745 5746 5747 5748 5750 5751 5753 5755 5756 5756 5755 5754 5755 5754 5751 5751 5752 5752 5752 5752 5752
5694 5694 5694 5695 5695 5695 5696 5696 5697 5697 5699 5699 5699 5700 5702 5702 5703 5703 5704 5705 5707 5707 5709 5710 5710 5710 5710 5709 5710 5711 5711 5712 5711 5712 5715 5717 5717 5717 5719 5720 5722 5722 5722 5723 5724 5725 5726 5726 5727 5727 5729 5729 5730 5732 5732 5733 5734 5736 5737 5739 5740 5741 5741 5740 5740 5740 5741 5743 5743 5744 5746 5747 5748 5750 5752 5752 5752 5752 5751 5751 5751 5750 5750 5749 5749 5750 5750 5751
5691 5692 5692 5692 5693 5693 5694 5694 5694 5695 5696 5696 5697 5698 5699 5699 5700 5701 5701 5703 5704 5705 5706 5707 5708 5708 5706 5707 5709 5709 5709 5709 5710 5711 5712 5714 5715 5715 5717 5718 5719 5719 5719 5720 5722 5723 5724 5725 5725 5725 5726 5727 5728 5730 5730 5731 5732 5734 5735 5736 5736 5737 5738 5738 5739 5739 5740 5740 5741 5742 5743 5744 5745 5747 5749 5749 5749 5749 5748 5748 5748 5749 5748 5746 5746 5748 5749 5750
5689 5689 5689 5689 5690 5691 5691 5692 5692 5693 5693 5694 5695 5696 5696 5697 5698 5698 5698 5700 5701 5702 5703 5704 5705 5705 5703 5705 5707 5707 5707 5708 5708 5708 5710 5712 5712 5713 5715 5716 5716 5717 5716 5717 5719 5721 5722 5723 5722 5722 5724 5726 5727 5727 5728 5729 5730 5731 5732 5732 5732 5733 5735 5736 5737 5737 5737 5737 5738 5739 5741 5740 5741 5743 5745 5746 5747 5747 5746 5746 5746 5747 5746 5743 5743 5745 5748 5747
5686 5686 5687 5687 5687 5688 5688 5689 5689 5690 5691 5691 5692 5693 5693 5695 5695 5695 5696 5697 5699 5699 5699 5700 5702 5702 5701 5703 5705 5705 5705 5706 5706 5705 5706 5709 5710 5711 5713 5713 5714 5715 5715 5715 5716 5718 5719 5719 5720 5721 5722 5724 5724 5724 5724 5725 5727 5728 5728 5729 5729 5731 5732 5733 5734 5734 5734 5734 5735 5738 5739 5738 5738 5739 5741 5743 5744 5744 5744 5744 5744 5745 5744 5742 5742 5743 5744 5744
5683 5683 5683 5684 5685 5685 5686 5686 5686 5687 5688 5689 5689 5690 5691 5692 5692 5693 5694 5695 5696 5696 5697 5698 5699 5700 5700 5701 5703 5703 5703 5704 5704 5704 5704 5706 5708 5709 5710 5710 5711 5712 5713 5714 5715 5717 5717 5716 5718 5719 5720 5721 5721 5721 5722 5723 5724 5725 5726 5727 5727 5728 5729 5729 5730 5730 5731 5732 5734 5735 5736 5735 5734 5736 5738 5740 5741 5740 5740 5742 5742 5742 5742 5742 5743 5743 5742 5742
5680 5680 5680 5681 5681 5682 5682 5683 5684 5684 5685 5686 5686 5687 5688 5689 5690 5692 5692 5692 5694 5694 5694 5696 5697 5697 5698 5699 5700 5701 5701 5702 5702 5702 5703 5704 5706 5707 5707 5708 5709 5710 5711 5712 5714 5714 5714 5714 5714 5716 5718 5719 5719 5719 5720 5722 5723 5724 5724 5724 5725 5726 5726 5726 5726 5727 5728 5730 5732 5732 5732 5732 5732 5733 5735 5736 5737 5736 5737 5738 5738 5738 5740 5741 5742 5742 5742 5741
5676 5677 5677 5678 5679 5679 5679 5680 5681 5681 5682 5683 5684 5685 5685 5686 5688 5690 5690 5690 5691 5692 5692 5693 5694 5694 5695 5696 5698 5699 5699 5700 5700 5700 5701 5703 5704 5705 5706 5706 5707 5709 5710 5710 5711 5711 5712 5713 5713 5714 5716 5716 5717 5717 5718 5720 5721 5721 5722 5722 5722 5723 5723 5723 5724 5725 5726 5727 5728 5729 5729 5730 5730 5731 5732 5733 5733 5733 5733 5734 5735 5736 5737 5738 5739 5740 5741 5742
5673 5673 5674 5675 5676 5676 5676 5677 5678 5678 5679 5680 5681 5682 5682 5684 5686 5688 5688 5688 5690 5690 5691 5692 5691 5692 5694 5695 5696 5696 5697 5698 5699 5699 5700 5701 5701 5702 5704 5704 5704 5707 5708 5708 5709 5710 5710 5711 5712 5713 5713 5714 5715 5715 5716 5718 5717 5718 5719 5720 5720 5720 5720 5721 5722 5723 5724 5724 5726 5726 5726 5727 5728 5728 5729 5730 5729 5729 5730 5731 5733 5734 5734 5734 5735 5738 5740 5741
5669 5670 5671 5671 5672 5672 5672 5673 5674 5675 5676 5676 5678 5678 5679 5682 5685 5685 5685 5686 5687 5688 5689 5689 5689 5690 5691 5693 5694 5695 5696 5697 5697 5698 5699 5699 5699 5700 5702 5703 5703 5704 5705 5706 5707 5707 5708 5709 5711 5711 5711 5712 5713 5713 5714 5716 5716 5716 5717 5718 5719 5718 5718 5719 5720 5721 5721 5722 5723 5724 5724 5725 5725 5725 5726 5727 5727 5726 5728 5729 5730 5730 5730 5730 5732 5735 5737 5737
5665 5666 5667 5668 5668 5668 5668 5669 5670 5671 5672 5673 5674 5675 5678 5680 5682 5682 5683 5683 5684 5686 5687 5686 5687 5687 5687 5689 5691 5692 5694 5695 5695 5696 5696 5697 5698 5699 5699 5701 5702 5703 5703 5704 5705 5704 5706 5707 5709 5710 5710 5711 5712 5713 5713 5714 5714 5715 5715 5717 5717 5716 5716 5717 5717 5718 5718 5719 5721 5722 5722 5723 5723 5723 5724 5725 5725 5725 5726 5727 5727 5727 5728 5728 5730 5731 5732 5732
5660 5661 5663 5664 5664 5663 5664 5665 5666 5667 5668 5669 5670 5673 5675 5677 5679 5680 5680 5681 5681 5682 5683 5683 5684 5685 5685 5686 5688 5690 5691 5692 5692 5693 5694 5695 5696 5697 5698 5699 5700 5701 5701 5701 5701 5701 5703 5705 5706 5707 5709 5710 5711 5712 5712 5712 5712 5713 5714 5715 5715 5715 5715 5715 5715 5716 5716 5717 5719 5720 5720 5721 5721 5721 5722 5722 5722 5722 5723 5724 5724 5725 5727 5727 5727 5728 5728 5728
5656 5657 5658 5659 5659 5659 5660 5661 5662 5663 5664 5665 5667 5670 5672 5674 5676 5677 5677 5678 5678 5679 5680 5681 5682 5683 5683 5683 5685 5687 5688 5689 5689 5691 5692 5693 5694 5695 5696 5697 5696 5698 5698 5698 5698 5699 5700 5703 5704 5704 5706 5708 5708 5709 5711 5711 5711 5713 5714 5714 5713 5713 5713 5713 5714 5714 5714 5716 5717 5718 5718 5718 5718 5719 5719 5719 5719 5719 5718 5719 5720 5721 5724 5725 5725 5725 5725 5725
5652 5654 5654 5654 5654 5656 5657 5657 5657 5658 5659 5661 5664 5667 5669 5671 5672 5674 5675 5677 5677 5677 5678 5679 5679 5680 5680 5681 5682 5683 5684 5684 5686 5688 5690 5691 5691 5692 5693 5693 5692 5693 5694 5694 5696 5697 5698 5700 5701 5702 5704 5705 5705 5706 5709 5709 5709 5710 5712 5712 5712 5711 5711 5711 5712 5712 5713 5713 5714 5715 5716 5716 5716 5716 5716 5716 5717 5716 5715 5714 5716 5717 5719 5722 5722 5722 5722 5723
5649 5650 5650 5650 5650 5652 5652 5652 5652 5653 5655 5658 5661 5664 5666 5668 5669 5670 5671 5672 5674 5674 5674 5675 5676 5677 5677 5677 5679 5680 5680 5681 5682 5684 5686 5687 5688 5689 5690 5689 5689 5689 5690 5692 5694 5695 5695 5696 5698 5700 5702 5703 5703 5704 5706 5707 5707 5708 5708 5709 5709 5709 5709 5709 5710 5710 5710 5711 5711 5712 5712 5713 5713 5714 5714 5714 5714 5714 5712 5711 5713 5715 5716 5718 5719 5720 5720 5720
5646 5646 5646 5646 5647 5648 5647 5647 5648 5650 5652 5654 5657 5660 5662 5664 5665 5666 5667 5667 5669 5669 5669 5671 5673 5674 5674 5674 5676 5676 5677 5678 5679 5681 5682 5682 5683 5684 5685 5686 5686 5686 5687 5689 5690 5692 5692 5692 5695 5698 5700 5701 5702 5702 5703 5704 5705 5705 5706 5706 5706 5706 5706 5707 5707 5707 5707 5708 5708 5709 5709 5710 5710 5711 5712 5712 5712 5711 5709 5709 5711 5712 5713 5715 5717 5717 5717 5717
5642 5642 5642 5642 5644 5644 5643 5643 5645 5646 5648 5651 5654 5656 5657 5659 5661 5663 5663 5664 5665 5664 5665 5668 5670 5671 5671 5672 5673 5673 5674 5675 5676 5678 5678 5677 5677 5679 5680 5682 5682 5682 5683 5684 5686 5689 5689 5690 5693 5696 5698 5699 5699 5700 5700 5702 5702 5702 5704 5705 5705 5704 5704 5704 5704 5704 5705 5706 5706 5706 5707 5708 5708 5708 5709 5709 5709 5708 5707 5707 5709 5709 5710 5712 5714 5713 5713 5713
5637 5638 5638 5639 5640 5640 5640 5640 5642 5643 5644 5647 5649 5651 5653 5654 5656 5658 5660 5660 5662 5662 5663 5665 5666 5668 5669 5669 5670 5671 5672 5673 5674 5675 5674 5672 5672 5675 5677 5678 5678 5679 5681 5681 5683 5687 5688 5689 5691 5693 5695 5696 5697 5698 5700 5700 5699 5699 5701 5702 5702 5701 5701 5701 5702 5702 5703 5703 5703 5704 5705 5705 5704 5704 5705 5705 5705 5703 5703 5705 5706 5706 5706 5707 5709 5709 5709 5709
5632 5633 5634 5634 5635 5636 5637 5637 5638 5639 5640 5643 5644 5646 5648 5649 5651 5653 5654 5655 5658 5659 5660 5661 5662 5663 5663 5664 5665 5667 5668 5669 5670 5672 5672 5668 5669 5673 5674 5673 5673 5676 5679 5679 5681 5683 5685 5686 5688 5689 5691 5693 5694 5695 5696 5696 5695 5695 5696 5696 5696 5698 5698 5699 5699 5700 5700 5700 5700 5702 5701 5701 5701 5700 5701 5702 5701 5699 5699 5701 5702 5702 5702 5702 5704 5705 5705 5705
5627 5628 5629 5629 5631 5632 5633 5634 5634 5635 5636 5638 5639 5641 5642 5644 5646 5648 5649 5651 5653 5654 5655 5656 5656 5657 5658 5659 5660 5662 5663 5665 5667 5669 5669 5667 5666 5668 5670 5669 5670 5674 5676 5676 5677 5680 5681 5682 5683 5685 5687 5689 5691 5690 5690 5691 5692 5692 5692 5691 5692 5693 5694 5695 5696 5697 5697 5696 5697 5698 5697 5697 5698 5696 5697 5698 5698 5696 5696 5697 5698 5698 5698 5699 5700 5701 5701 5701
5622 5622 5624 5625 5626 5628 5629 5629 5630 5631 5632 5634 5635 5636 5638 5640 5642 5644 5646 5647 5649 5649 5651 5651 5651 5653 5654 5654 5656 5658 5659 5661 5663 5664 5665 5665 5663 5664 5665 5666 5668 5670 5671 5671 5673 5676 5678 5679 5680 5681 5683 5685 5687 5687 5687 5688 5689 5689 5689 5689 5689 5689 5689 5691 5692 5693 5693 5693 5694 5694 5693 5694 5694 5692 5692 5694 5695 5693 5692 5693 5695 5694 5694 5695 5695 5696 5697 5697
5617 5618 5620 5621 5623 5624 5624 5625 5626 5627 5628 5629 5630 5631 5634 5636 5638 5640 5642 5643 5644 5645 5646 5647 5647 5649 5650 5650 5652 5654 5655 5657 5658 5659 5661 5662 5661 5660 5660 5662 5664 5665 5666 5667 5670 5672 5674 5676 5677 5678 5679 5680 5682 5683 5683 5684 5685 5686 5686 5686 5686 5686 5686 5686 5687 5688 5688 5689 5691 5690 5689 5690 5690 5687 5687 5689 5690 5690 5688 5688 5690 5690 5690 5691 5691 5691 5691 5692
5612 5615 5616 5617 5618 5620 5620 5621 5622 5623 5624 5625 5626 5628 5630 5631 5633 5636 5637 5638 5639 5640 5640 5641 5643 5644 5645 5645 5646 5649 5651 5652 5653 5655 5657 5658 5657 5657 5656 5656 5658 5659 5660 5664 5666 5668 5669 5670 5672 5673 5674 5675 5676 5676 5678 5679 5680 5681 5682 5682 5682 5683 5683 5682 5683 5683 5683 5683 5686 5685 5684 5686 5685 5683 5683 5684 5685 5685 5683 5682 5684 5685 5685 5686 5686 5686 5686 5687
5608 5610 5611 5612 5614 5615 5616 5617 5618 5619 5621 5622 5623 5625 5626 5627 5629 5631 5632 5632 5633 5634 5635 5636 5638 5639 5638 5638 5641 5644 5645 5646 5647 5650 5653 5654 5653 5654 5653 5653 5654 5654 5656 5659 5660 5663 5665 5665 5666 5668 5669 5670 5671 5671 5673 5674 5675 5676 5677 5678 5678 5678 5678 5678 5678 5678 5677 5678 5680 5679 5679 5680 5679 5678 5679 5680 5680 5680 5679 5677 5677 5679 5680 5680 5680 5681 5681 5681
5604 5606 5607 5608 5609 5611 5612 5613 5614 5615 5616 5618 5619 5620 5620 5622 5624 5625 5627 5628 5628 5629 5630 5631 5633 5634 5633 5635 5639 5641 5640 5641 5643 5645 5649 5650 5650 5650 5650 5650 5650 5650 5652 5653 5653 5657 5660 5659 5660 5662 5664 5665 5666 5666 5667 5667 5668 5670 5672 5672 5672 5673 5673 5674 5673 5673 5673 5673 5674 5674 5673 5672 5672 5673 5674 5674 5675 5676 5676 5674 5673 5673 5674 5673 5674 5675 5676 5677
5599 5601 5603 5604 5604 5605 5606 5607 5609 5611 5612 5613 5614 5616 5617 5617 5617 5620 5623 5623 5622 5621 5623 5625 5627 5628 5629 5633 5636 5636 5635 5637 5639 5641 5645 5647 5647 5647 5647 5647 5647 5647 5647 5648 5648 5651 5653 5653 5655 5657 5658 5660 5661 5661 5661 5661 5663 5665 5666 5665 5667 5668 5669 5670 5669 5667 5666 5667 5668 5668 5666 5664 5665 5668 5668 5668 5669 5671 5671 5671 5670 5669 5667 5667 5668 5669 5670 5671
5595 5597 5598 5599 5599 5600 5601 5603 5606 5607 5607 5609 5610 5612 5612 5611 5613 5617 5619 5617 5616 5616 5619 5622 5623 5624 5627 5630 5632 5631 5632 5634 5636 5638 5641 5643 5643 5643 5643 5643 5644 5644 5644 5643 5644 5646 5647 5648 5650 5651 5653 5654 5654 5654 5655 5656 5659 5660 5658 5658 5661 5662 5663 5664 5663 5660 5659 5660 5662 5661 5659 5659 5660 5661 5661 5662 5663 5664 5664 5664 5664 5663 5662 5663 5664 5664 5663 5663